Meath Environmental Platform

Observations

Time Sensor AQI SAQ Temp °C Hum % Pres Pa CO μg/m³ H₂S μg/m³ NO μg/m³ NO₂ μg/m³ O₃ μg/m³ SO₂ μg/m³ CO₂e PPM VOC PPM PM1 μg/m³ PM2.5 μg/m³ PM4 μg/m³ PM10 μg/m³ TPS µm
Thursday 13 August 2026
06:59 Trim Market St 2 21.4 73 43,906 0 0 1.35 9.15 44.26 0 2.85 4.83 8.75
06:58 Trim Patrick St 2 21 76 38,460 0 0 1.77 6.27 31.12 3.88 5.43 11.17 12.29
06:57 Trim Patrick St 2 21 76 38,460 0 0.73 1.75 7.38 30.58 4.25 7.14 11.17 12.29
06:57 Trim Market St 2 21.4 73 43,868 0 0 1.27 1.95 42.78 0 3.56 4.83 8.14
06:56 Trim Patrick St 2 21 76 38,460 0 0 1.84 12.24 24.46 3.61 5.43 11.17 12.28
06:55 Trim Market St 2 21.4 73 43,512 0 0 1.29 4.6 37.28 0 2.85 5.79 10.57
06:54 Trim Patrick St 2 20.9 76 38,460 0 2.02 1.72 12.05 27.62 4.05 6.29 9.75 10.72
06:53 Trim Patrick St 2 20.9 76 38,460 0 2.39 1.97 11.49 29.96 4.16 6.29 10.43 11.47
06:52 Trim Patrick St 2 20.9 76 38,460 0 5 1.93 13.6 28.38 3.93 8 11.89 13.08
06:50 Trim Patrick St 2 20.9 76 38,460 0 0.94 1.83 17.71 21.59 4.61 7.14 10.47 11.52
06:49 Trim Patrick St 2 20.9 76 38,460 0 1.08 1.79 3.66 30.58 3.92 5.43 9.06 9.97
06:48 Trim Patrick St 2 20.9 75 38,460 0 3.84 1.56 14.27 35.73 4.67 6.29 10.49 11.54
06:48 Trim Market St 2 21.3 73 41,909 0.01 0 1.31 8.88 37.27 0 4.28 5.31 8.74
06:46 Trim Patrick St 2 20.9 76 38,460 0 0 1.47 9.99 28.51 3.76 5.43 9.72 10.7
06:45 Trim Patrick St 2 20.9 76 38,460 0 0 1.49 0.37 32.44 4.42 6.29 11.13 12.25
06:44 Trim Patrick St 2 20.9 76 38,460 0 1.47 1.46 12.5 32.42 3.74 7.14 11.19 12.31
06:43 Trim Patrick St 2 20.9 76 38,460 0 0.21 1.44 12.64 27.28 3.41 6.29 10.46 11.5
06:42 Trim Patrick St 2 20.9 76 38,460 0 2.31 1.54 9.39 32.59 4.13 5.43 9 9.9
06:42 Trim Market St 2 21.3 73 41,507 0.02 0 1.23 3.79 40.47 0 3.56 5.3 8.74
06:40 Trim Market St 2 21.3 73 41,380 0 0 1.23 2.55 37.43 0 2.14 3.86 6.92